www.pogodaiklimat.ru

Погода и климат >> Архив погоды >> Пакистан >> Peshawar


ПОГОДА в Peshawar

  • Прогноз погоды в Peshawar
  • Монитор погоды в Peshawar
  • Климат города

АРХИВ ПОГОДЫ в Peshawar

Время (UTC), дата Ветер
(напр.,м/с)
 
Видим.   Явления Облачность Т
(С)
Тd
(С)
f
(%)
Тe
(С)
Тes
(С)
Комфортность P
(гПа)
Po
(гПа)
Тmin
(С)
Tmax
(С)
R
(мм)
R24
(мм)
S
(см)
00 12.12 штиль 0 4000 м ясно +8.0 +5.8 86 +7 +7 1019.7 980.2
03 12.12 штиль 0 10 км ясно +7.0 +4.7 85 +6 +7 1021.2 981.7 +7.1
06 12.12 штиль 0 10 км 8/4 300 м
[Sc As op]
+12.0 +7.9 76 +12 +14 1022.1 983.3
09 12.12 штиль 0 10 км 8/4 300 м
[Sc As op]
+17.5 +6.4 48 +18 +19 1019.3 981.2
12 12.12 штиль 0 10 км 3/3 1200 м
[Sc]
+16.5 +9.9 65 +16 +16 1018.5 980.1 +18.2
15 12.12 ЮЗ 1 4000 м ясно +10.0 +7.9 87 +10 +10 1021.2 982.0
18 12.12 штиль 0 2000 м дымка ясно +8.0 +5.8 86 +7 +7 1022.4 982.9
21 12.12 штиль 0 2000 м дымка ясно +6.5 +4.2 85 +6 +6 1024.2 984.7
00 13.12 штиль 0 2000 м дымка ясно +5.8 +3.1 83 +5 +5 1024.4 984.9
03 13.12 штиль 0 2000 м дымка ясно +5.0 +3.8 92 +4 +4 1026.8 986.7 +4.5
06 13.12 ЮЗ 1 4000 м мгла ясно +13.0 +8.0 72 +14 +21 1025.4 986.6
09 13.12 ЮЗ 1 4000 м мгла ясно +17.5 +10.0 61 +19 +24 1021.3 983.7
12 13.12 штиль 0 4000 м мгла ясно +17.0 +11.5 70 +17 +17 1021.5 983.4 +18.9
15 13.12 штиль 0 4000 м ясно +10.0 +7.9 87 +9 +9 1024.2 985.0
18 13.12 штиль 0 4000 м ясно +8.0 +5.8 86 +7 +7 1025.1 985.6
21 13.12 штиль 0 4000 м ясно +7.0 +4.7 85 +6 +6 1026.8 987.3
00 14.12 штиль 0 4000 м ясно +5.0 +3.8 92 +4 +4 1028.0 987.9
03 14.12 штиль 0 10 км ясно +4.0 +2.8 92 +3 +3 1029.1 989.0 +3.1
06 14.12 штиль 0 10 км ясно +12.0 +5.6 65 +12 +19 1029.7 990.9
09 14.12 СЗ 1 10 км ясно +17.0 +5.1 45 +19 +24 1025.0 986.9
12 14.12 штиль 0 10 км ясно +17.5 +8.9 57 +18 +18 1024.9 987.6 +19.1
15 14.12 штиль 0 4000 м ясно +10.0 +5.7 75 +9 +9 1027.7 989.3
18 14.12 штиль 0 4000 м ясно +8.0 +4.6 79 +7 +7 1028.3 989.4
00 15.12 штиль 0 4000 м ясно +5.0 +3.8 92 +4 +4 1029.0 989.7
03 15.12 штиль 0 10 км ясно +4.0 +1.4 83 +3 +3 1027.0 987.7 +2.1
06 15.12 штиль 0 10 км ясно +14.0 +2.8 47 +14 +21 1028.1 990.5
09 15.12 штиль 0 10 км ясно +20.0 +3.1 33 +20 +26 1022.7 985.7
12 15.12 штиль 0 10 км ясно +18.0 +8.3 53 +18 +18 1023.6 985.5 +22.1
15 15.12 штиль 0 4000 м ясно +10.0 +8.0 87 +9 +9 1025.4 986.2
18 15.12 штиль 0 4000 м ясно +7.0 +4.7 85 +6 +6 1028.3 988.8
21 15.12 штиль 0 4000 м ясно +6.0 +3.6 85 +5 +5 1028.6 988.5
00 16.12 штиль 0 4000 м ясно +5.0 +2.5 84 +4 +4 1028.8 989.3
03 16.12 штиль 0 10 км ясно +3.5 +2.2 91 +2 +3 1028.4 988.3 +2.1
06 16.12 штиль 0 10 км ясно +14.0 +2.8 47 +14 +21 1029.1 990.7
09 16.12 штиль 0 10 км ясно +20.5 +5.4 37 +21 +27 комфорт 1023.4 985.7
12 16.12 штиль 0 10 км ясно +20.0 +9.8 52 +21 +21 комфорт 1024.2 986.5 +23.1
15 16.12 штиль 0 4000 м ясно +11.0 +3.0 58 +11 +11 1023.7 984.9
18 16.12 штиль 0 4000 м ясно +7.5 +5.3 86 +7 +7 1025.2 985.7
21 16.12 штиль 0 4000 м ясно +6.0 +3.6 85 +5 +5 1024.6 985.1
00 17.12 штиль 0 4000 м ясно +5.0 +2.5 84 +4 +4 1027.7 987.6
03 17.12 штиль 0 10 км ясно +3.0 +0.3 82 +2 +2 1025.7 985.6 +2.1
06 17.12 штиль 0 10 км ясно +13.0 +6.8 66 +13 +20 1025.3 986.3
09 17.12 штиль 0 10 км ясно +20.0 +3.1 33 +20 +26 1021.8 983.7
12 17.12 штиль 0 10 км ясно +20.0 +8.6 48 +21 +21 комфорт 1019.0 982.0 +22.0
15 17.12 штиль 0 4000 м ясно +10.0 +5.7 75 +9 +9 1023.4 985.0
18 17.12 штиль 0 4000 м ясно +8.0 +3.3 72 +7 +7 1025.4 986.5
00 18.12 штиль 0 4000 м ясно +5.0 +2.5 84 +4 +4 1025.5 986.2
03 18.12 штиль 0 10 км ясно +3.0 +1.7 91 +2 +2 1024.3 985.0 +2.1
06 18.12 штиль 0 10 км мгла ясно +14.5 +3.5 48 +14 +22 1022.4 984.8
09 18.12 штиль 0 10 км 1/0
[Ci fib]
+21.0 +1.5 27 +21 +27 комфорт 1017.9 980.9
12 18.12 штиль 0 10 км мгла 5/3 300 м
[Sc Ac trans]
+20.0 +5.2 38 +20 +20 1017.4 980.4 +22.1
15 18.12 штиль 0 4000 м ясно +12.5 +7.4 71 +12 +12 1018.2 980.2
18 18.12 штиль 0 4000 м ясно +10.0 +5.7 75 +9 +9 1020.1 981.7

 

Местоположение метеостанции Peshawar (Пакистан): широта 34.02 долгота 71.58 высота над уровнем моря 360 м.

В архиве по умолчанию представлена погода в Peshawar за последнюю неделю. Архивные данные за месяц целиком и за предыдущие месяцы, начиная с января 2011 года, Вы можете получить, выбрав интересующий диапазон дат из раскрывающегося списка и нажав кнопку "Ввод!".


*Определитесь, кто Вы:
робот инопланетянин человек

Внимание! Время в таблицах - всемирное. Для получения местного времени необходимо прибавить поправку, которая в Peshawar равна 5 ч.

Смотрите также архив погоды в соседних городах и на ближайших метеорологических станциях:

Погода в Risalpur (Пакистан) (37 км)
Погода в Kohat (Пакистан) (52 км)
Погода в Saidu Sharif (Пакистан) (106 км)
Погода в Jalalabad (Афганистан) (112 км)
Погода в Dir (Пакистан) (134 км)
Погода в Parachinar (Пакистан) (139 км)
Погода в Islamabad (Пакистан) (147 км)
Погода в Kakul (Пакистан) (155 км)
Погода в Mianwali (Пакистан) (164 км)
Погода в Murree (Пакистан) (166 км)

Пояснения к столбцам:

Ветер - указаны скорость ветра в м/с - средняя за 10 мин, порывы в срок и между сроками (в фигурных скобках) и направление, откуда дует ветер: С - северный, СВ - северо-восточный, В - восточный, ЮВ - юго-восточный, Ю - южный, ЮЗ - юго-западный, З - западный, СЗ - северо-западный.
Видимость - горизонтальная дальность видимости в метрах или километрах. При видимости от 1 до 10 км при отсутствии осадков обычно наблюдается дымка, при ухудшении видимости до 1 км и менее - туман. В сухую погоду видимость может ухудшаться дымом, пылью или мглою.
Явления - указаны атмосферные явления, наблюдавшиеся в срок или в последний час перед сроком; фигурными скобками обозначены явления, наблюдавшиеся между сроками (за 1-3 часа до срока); квадратными скобками обозначены град или гололедные отложения с указанием их диаметра в мм.
Облачность - указаны через наклонную черту общая и нижняя облачность в баллах и высота нижней границы облаков в метрах; квадратными скобками обозначены формы облаков: Ci - перистые, Cs - перисто-слоистые, Cc - перисто-кучевые, Ac - высококучевые, As - высокослоистые, Sc - слоисто-кучевые, Ns - слоисто-дождевые, Cu - кучевые, Cb - кучево-дождевые. Подробнее классификацию облаков см. в Атласе облаков (PDF).
T - Температура воздуха - температура, измеренная на высоте 2 м над землей.
Td - Температура точки росы - температура, при понижении до которой содержащийся в воздухе водяной пар достигнет насыщения.
f - Относительная влажность воздуха - влажноcть воздуха, измеренная на высоте 2 м над землей.
Te - Эффективная температура - температура, которую ощущает одетый по сезону человек в тени. Характеристика душности погоды. При расчете учитывается влияние влажности воздуха и скорости ветра на теплоощущения человека.
Tes - Эффективная температура на солнце - температура, которую ощущает человек, с поправкой на солнечный нагрев. Характеристика знойности погоды. Зависит от высоты солнца над горизонтом, облачности и скорости ветра. Ночью, в пасмурную погоду, а также при ветре 12 м/с и более поправка равна нулю.
P - Атмосферное давление - приведенное к уровню моря атмосферное давление.
Po - Атмосферное давление - измеренное на уровне метеостанции атмосферное давление.
Tmin - Минимальная температура - минимум температуры воздуха на высоте 2 м над землей.
Tmax - Максимальная температура - максимум температуры воздуха на высоте 2 м над землей.
R - Количество осадков - Количество выпавших осадков за период времени, мм. При наведении курсора мыши на число - период времени, за который выпало указанное количество осадков.
R24 - Количество осадков - Количество выпавших осадков за 24 часа, мм.
S - Снежный покров - Высота снежного покрова, см. При наведении курсора мыши на число - состояние снежного покрова и степень покрытия местности в баллах.